Regional Weather Roundup
Issued by NWS Charleston, SC

Current Version | Previous Version | Graphics & Text | Print | Product List | Glossary On
Versions: 1 2 3 4 5 6 7 8 9 10 11 12 13 14 15 16 17 18 19 20 21 22 23 24 25 26 27 28 29 30 31 32 33 34 35 36 37 38 39 40 41 42 43 44 45 46 47 48 49 50
000
ASUS42 KCHS 231711
RWRCHS

REGIONAL WEATHER ROUNDUP
NATIONAL WEATHER SERVICE CHARLESTON SC
1200 PM EST THU FEB 23 2017

NOTE: "FAIR" INDICATES FEW OR NO CLOUDS BELOW 12,000 FEET WITH NO
SIGNIFICANT WEATHER AND/OR OBSTRUCTIONS TO VISIBILITY.

NOT ALL STATIONS ARE QUALITY CONTROLLED. USE DATA WITH CAUTION...
ESPECIALLY DEWPOINT OBSERVATIONS.

SCZ027-030-031-034>040-042>050-231800-
...SOUTHEAST SOUTH CAROLINA...

CITY           SKY/WX    TMP DP  RH WIND       PRES   REMARKS
N CHARLESTON   PTSUNNY   76  58  53 E15G21    29.86F
WATERFRONT PRK   N/A     69  62  78 E16       29.85F
MOUNT PLEASANT FAIR      75  61  60 NE6G17    29.87F
JOHNS ISLAND   FAIR      75  63  64 NE20      29.86F
PINOPOLIS        N/A     64  61  88 NE7       29.81F
MONCKS CORNER  FAIR      73  57  56 E12G17    29.88F
SUMMERVILLE    FAIR      73  57  56 E6        29.88F
BEAUFORT MCAS  MOSUNNY   75  62  64 E10       29.85F
BEAUFORT ARPT  FAIR      73  61  64 E16G24    29.85F
HILTON HEAD IS MOSUNNY   73  63  68 NE12G21   29.85F
WALTERBORO     MOSUNNY   73  57  56 E15G21    29.88F
ALLENDALE      PTSUNNY   73  57  56 VRB5G13   29.86F

...SOUTHERN MIDLANDS AND PEE DEE...

CITY           SKY/WX    TMP DP  RH WIND       PRES   REMARKS
GEORGETOWN     CLOUDY    68  59  73 NE8       29.91F
KINGSTREE      FAIR      72  55  56 E10       29.90F
ORANGEBURG     MOSUNNY   71  55  56 NE8       29.89F
BARNWELL       HAZE      75  57  53 NE12G18   29.88F VSB 3/4
AIKEN          PTSUNNY   72  54  53 NE10      29.93F
MANNING        PTSUNNY   72  34  25 MISG      29.89F
COLUMBIA       MOSUNNY   72  54  53 E8        29.90F
SUMTER         MOSUNNY   75  55  50 E9        29.88F
FLORENCE       PTSUNNY   73  56  54 E8G17     29.91F
MYRTLE BEACH   PTSUNNY  N/A N/A N/A E14       29.92F
N MYRTLE BEACH MOSUNNY   73  57  57 E12G22    29.91F

$$

GAZ063-065-086>088-099>101-113>116-118-119-134>141-150-231800-
...SOUTHEAST GEORGIA...

CITY           SKY/WX    TMP DP  RH WIND       PRES   REMARKS
SAVANNAH ARPT  PTSUNNY   74  60  61 NE14      29.84F
HUNTER AAF     CLOUDY    74  66  75 E15G21    29.81F
FORT STEWART   PTSUNNY   72  62  68 NE13      29.81F
STATESBORO     MOSUNNY   74  62  66 E8        29.86F
SYLVANIA       PTSUNNY  N/A N/A N/A E13       29.87F
CLAXTON        CLOUDY   N/A N/A N/A NE12      29.85F

...CSRA...CENTRAL AND FAR SOUTHEAST GEORGIA...

CITY           SKY/WX    TMP DP  RH WIND       PRES   REMARKS
THOMSON        MOSUNNY   73  58  59 E5        29.94F
AUGUSTA-BUSH   MOSUNNY   76  55  48 E10       29.88F
AUGUSTA-DANIEL SUNNY     74  53  48 E10       29.89F
SWAINSBORO     PTSUNNY   73  59  60 NE9       29.87F
VIDALIA        PTSUNNY   77  64  65 E15       29.85F
EASTMAN        PTSUNNY   77  45  31 E9        29.88F
HAZLEHURST     FAIR      74  64  70 NE10G16   29.84F
ALMA           MOSUNNY   75  62  64 E9        29.82F
WAYCROSS       MOSUNNY   78  67  68 E13G22    29.81F
JESUP          PTSUNNY   73  61  64 NE10      29.82F
BAXLEY         FAIR      75  64  69 E14       29.83F
BRUNSWICK      MOSUNNY   73  66  78 NE15G22   29.82F
SAINT SIMONS   MOSUNNY   71  62  73 NE22      29.80F

$$

SCZ027-028-034-036>038-045-046-048>050-GAZ119-141-231800-
...LAKE AND SUPPLEMENTAL COASTAL OBSERVATIONS...

STATION/POSITION TIME  TEMP    WIND        PRES    WAVE   SWELL
                       AIR SEA DIR/SP/G            HT/PER HT/PER/DIR
                 (UTC) (F)     (DEG/KT/KT) (MB)    (FT/S) (FT/S/D)
WINYAH BAY       NOT AVBL
LAKE MURRAY      1620   69     150/  2/  3 1012.5
ACE BASIN NERRS  1545   72      50/  7     1011.0
FORT PULASKI     1648   67 61   60/ 15/ 21 1010.8F
SAPELO ISLAND    1600   70      30/ 15     1010.0

$$

ANZ835-935-AMZ111-154-330-350-352-354-370-450-454-472-231800-
...C-MAN AND BUOY OBSERVATIONS...

STATION/POSITION TIME  TEMP    WIND        PRES    WAVE   SWELL
                       AIR SEA DIR/SP/G            HT/PER HT/PER/DIR
                 (UTC) (F)     (DEG/KT/KT) (MB)    (FT/S) (FT/S/D)
BUOY 41004       1550   70 69   60/ 16/ 19 1010.7    8/ 9   5/130/ 9
BUOY 41008       1550   63 63   40/ 19/ 23 1008.9    7/ 8   3/120/ 8
FOLLY BEACH CMAN 1600   64      50/ 16/ 18 1012.1F
CAPERS NEARSHORE 1608   62 59   50/ 14/ 17 1011.7F
FRIPP NEARSHORE  1608   64 61   50/ 16/ 19 1010.8S


STATION/POSITION TIME  TEMP    WIND        PRES    WAVE   SWELL
                       AIR SEA DIR/SP/G            HT/PER HT/PER/DIR
                 (UTC) (F)     (DEG/KT/KT) (MB)    (FT/S) (FT/S/D)
5E ST. MARYS GA  1630      64                N/A     7/ 9   2/120/11
FRYING PAN BUOY  1650   70 69  100/ 16/ 21 1012.6F   6/ 7   3/150/ 7
BUOY 41025       1650   71 74  140/ 16/ 17 1014.6F   4/ 5   2/ 90/10
CAPE LOOKOUT NC  1600   67      40/  5/  5 1014.4S
BUOY 41002       1550   69 70  100/ 19/ 23 1012.8    7/ 7   2/ 50/10
BUOY 41010       NOT AVBL
ST AUGUSTINE FL  1700   67 67   40/ 21/ 25 1007.3R


$$




USA.gov is the U.S. government's official web portal to all federal, state and local government web resources and services.